Weather History for Winnipeg, MB

Change the Weather History Date:

Monday, March 4, 2013

  Actual Average Record
Temperature  
Mean Temperature 23 °F -  
Max Temperature 25 °F 17 °F 33 °F (2005)
Min Temperature 21 °F 1 °F -22 °F (2003)
Degree Days  
Heating Degree Days 42    
Moisture  
Dew Point 19 °F    
Average Humidity 82    
Maximum Humidity 93    
Minimum Humidity 52    
Precipitation  
Precipitation 0.08 in - - ()
Sea Level Pressure  
Sea Level Pressure 30.09 in    
Wind  
Wind Speed 14 mph ()    
Max Wind Speed 23 mph    
Max Gust Speed 30 mph    
Visibility 4.9 miles    
Events Snow    
Averages and records for this station are not official NWS values.
T = Trace of Precipitation, MM = Missing Value Source: Averaged Metar Reports

Daily Weather History Graph

Daily Weather History Graph

Search for Another Location

Airport:

Trip Planner

Search our weather history database for the weather conditions in past years. The results will help you decide how hot, cold, wet, or windy it might be!

Date:

Astronomy

Mar. 04, 2013 Rise Set
Actual Time 7:05 AM CST 6:16 PM CST
Civil Twilight 6:33 AM CST 6:48 PM CST
Nautical Twilight 5:55 AM CST 7:26 PM CST
Astronomical Twilight 5:18 AM CST 8:04 PM CST
Moon 1:40 AM CST (3/4) 10:34 AM CST (3/4)
Length of Visible Light 12h 15m
Length of Day
11h 11m
Waning Gibbous, 52% of the Moon is Illuminated
Mar 4
Waning Gibbous
Mar 4
Last Quarter
Mar 11
New
Mar 19
First Quarter
Mar 27
Full

Hourly Weather History & Observations

Time (CST) Temp. Windchill Dew Point Humidity Pressure Visibility Wind Dir Wind Speed Gust Speed Precip Events Conditions
12:00 AM 29 °F - 18 °F 52% 30.01 in 9 mi Calm Calm - -   Overcast
12:00 AM 28.4 °F 18.5 °F 17.6 °F 64% 30.01 in 15.0 mi ESE 11.5 mph - N/A   Overcast
1:00 AM 28.4 °F 18.0 °F 17.6 °F 64% 30.01 in 15.0 mi ESE 12.7 mph 19.6 mph N/A   Overcast
2:00 AM 28.4 °F 17.0 °F 17.6 °F 64% 30.01 in 15.0 mi SE 15.0 mph 21.9 mph N/A Snow Light Snow
3:00 AM 26.6 °F 19.1 °F 21.2 °F 80% 30.02 in 10.0 mi East 6.9 mph - N/A Snow Light Snow
3:41 AM 24.8 °F 13.4 °F 19.4 °F 80% 30.03 in 2.0 mi ESE 12.7 mph - N/A Snow Light Snow
4:00 AM 24.8 °F 14.0 °F 21.2 °F 86% 30.03 in 1.5 mi East 11.5 mph - N/A Snow Light Snow
5:00 AM 24.8 °F 14.6 °F 21.2 °F 86% 30.03 in 2.0 mi East 10.4 mph - N/A Snow Light Snow
5:47 AM 23.0 °F 10.1 °F 19.4 °F 86% 30.03 in 4.0 mi East 15.0 mph - N/A Snow Light Snow
6:00 AM 24 °F - 20 °F 79% 30.04 in 2 mi Calm Calm - -   Unknown Precipitation
6:00 AM 23.0 °F 10.1 °F 19.4 °F 86% 30.04 in 2.0 mi East 15.0 mph - N/A Snow Light Snow
6:06 AM 23.0 °F 9.6 °F 19.4 °F 86% 30.04 in 1.5 mi East 16.1 mph - N/A Snow Light Snow
6:24 AM 23.0 °F 10.1 °F 19.4 °F 86% 30.03 in 1.2 mi East 15.0 mph - N/A Snow Light Snow
7:00 AM 23.0 °F 8.7 °F 19.4 °F 86% 30.03 in 1.5 mi East 18.4 mph - N/A Snow Light Snow
7:13 AM 23.0 °F 8.7 °F 19.4 °F 86% 30.03 in 0.8 mi East 18.4 mph - N/A Snow Light Snow
7:45 AM 23.0 °F 9.6 °F 19.4 °F 86% 30.02 in 6.0 mi East 16.1 mph - N/A Snow Light Snow
8:00 AM 23.0 °F 8.3 °F 19.4 °F 86% 30.02 in 15.0 mi East 19.6 mph 26.5 mph N/A Snow Low Drifting Snow
8:16 AM 23.0 °F 9.2 °F 21.2 °F 93% 30.02 in 15.0 mi East 17.3 mph 26.5 mph N/A Snow Low Drifting Snow
8:47 AM 23.0 °F 9.2 °F 19.4 °F 86% 30.03 in 15.0 mi East 17.3 mph 23.0 mph N/A Snow Low Drifting Snow
9:00 AM 23.0 °F 9.2 °F 19.4 °F 86% 30.03 in 15.0 mi East 17.3 mph - N/A Snow Low Drifting Snow
9:33 AM 24.8 °F 10.0 °F 17.6 °F 74% 30.04 in 5.0 mi East 21.9 mph 27.6 mph N/A Snow Light Snow
9:43 AM 24.8 °F 10.3 °F 17.6 °F 74% 30.04 in 1.0 mi East 20.7 mph 29.9 mph N/A Snow Light Snow
9:50 AM 24.8 °F 10.0 °F 19.4 °F 80% 30.04 in 1.0 mi East 21.9 mph - N/A Snow Light Snow
10:00 AM 23.0 °F 7.2 °F 19.4 °F 86% 30.05 in 0.6 mi East 23.0 mph 29.9 mph N/A Snow Light Snow
10:10 AM 23.0 °F 7.6 °F 19.4 °F 86% 30.05 in 0.5 mi East 21.9 mph 27.6 mph N/A Snow Snow
10:36 AM 23.0 °F 9.6 °F 19.4 °F 86% 30.05 in 0.8 mi East 16.1 mph 23.0 mph N/A Snow Light Snow
11:00 AM 23.0 °F 9.2 °F 21.2 °F 93% 30.05 in 0.6 mi East 17.3 mph - N/A Snow Light Snow
11:24 AM 24.8 °F 11.9 °F 21.2 °F 86% 30.05 in 1.0 mi ENE 16.1 mph - N/A Snow Light Snow
11:29 AM 24.8 °F 11.9 °F 19.4 °F 80% 30.05 in 5.0 mi ENE 16.1 mph - N/A Snow Light Snow
11:43 AM 24.8 °F 11.5 °F 19.4 °F 80% 30.05 in 15.0 mi ENE 17.3 mph - N/A Snow Low Drifting Snow
12:00 PM 25 °F - 17 °F 61% 30.06 in 9 mi Calm Calm - -   Unknown Precipitation
12:00 PM 24.8 °F 11.9 °F 15.8 °F 69% 30.05 in 15.0 mi ENE 16.1 mph 21.9 mph N/A Snow Low Drifting Snow
12:46 PM 24.8 °F 11.9 °F 10.4 °F 54% 30.07 in 15.0 mi ENE 16.1 mph - N/A Snow Light Snow
1:00 PM 24.8 °F 12.4 °F 12.2 °F 59% 30.07 in 15.0 mi East 15.0 mph 21.9 mph N/A Snow Light Snow
1:41 PM 23.0 °F 9.2 °F 17.6 °F 80% 30.07 in 1.5 mi ENE 17.3 mph - N/A Snow Light Snow
2:00 PM 23.0 °F 8.7 °F 19.4 °F 86% 30.08 in 0.8 mi ENE 18.4 mph 24.2 mph N/A Snow Light Snow
2:08 PM 23.0 °F 8.7 °F 19.4 °F 86% 30.08 in 0.5 mi ENE 18.4 mph 24.2 mph N/A Snow Snow
2:25 PM 23.0 °F 7.6 °F 19.4 °F 86% 30.08 in 1.0 mi ENE 21.9 mph - N/A Snow Light Snow
3:00 PM 23.0 °F 9.2 °F 19.4 °F 86% 30.09 in 0.8 mi ENE 17.3 mph - N/A Snow Light Snow Showers
3:12 PM 23.0 °F 9.2 °F 19.4 °F 86% 30.10 in 0.5 mi ENE 17.3 mph - N/A Snow Snow Showers
4:00 PM 23.0 °F 9.2 °F 19.4 °F 86% 30.12 in 0.5 mi ENE 17.3 mph - N/A Snow Snow Showers
5:00 PM 23.0 °F 9.2 °F 19.4 °F 86% 30.14 in 0.5 mi ENE 17.3 mph 23.0 mph N/A Snow Snow Showers
5:25 PM 23.0 °F 10.1 °F 19.4 °F 86% 30.15 in 0.8 mi ENE 15.0 mph - N/A Snow Light Snow Showers
6:00 PM 23 °F - 21 °F 88% 30.17 in 1 mi Calm Calm - -   Unknown Precipitation
6:00 PM 23.0 °F 9.6 °F 19.4 °F 86% 30.17 in 1.0 mi NE 16.1 mph - N/A Snow Light Snow Showers
6:30 PM 23.0 °F 9.6 °F 19.4 °F 86% 30.18 in 0.8 mi NE 16.1 mph - N/A Snow Light Snow Showers
7:00 PM 23.0 °F 9.6 °F 19.4 °F 86% 30.19 in 1.0 mi NE 16.1 mph - N/A Snow Light Snow Showers
7:19 PM 21.2 °F 7.3 °F 19.4 °F 93% 30.20 in 1.5 mi NE 16.1 mph - N/A Snow Light Snow
8:00 PM 21.2 °F 7.8 °F 19.4 °F 93% 30.22 in 10.0 mi NE 15.0 mph - N/A Snow Light Snow
8:27 PM 21.2 °F 6.8 °F 19.4 °F 93% 30.23 in 1.0 mi NE 17.3 mph - N/A Snow Light Snow
9:00 PM 21.2 °F 7.8 °F 19.4 °F 93% 30.24 in 2.0 mi NE 15.0 mph 23.0 mph N/A Snow Light Snow
9:20 PM 21.2 °F 7.3 °F 19.4 °F 93% 30.24 in 3.0 mi ENE 16.1 mph - N/A Snow Light Snow
10:00 PM 21.2 °F 6.4 °F 17.6 °F 86% 30.25 in 4.0 mi NE 18.4 mph - N/A Snow Light Snow
11:00 PM 21.2 °F 8.3 °F 17.6 °F 86% 30.27 in 2.0 mi NE 13.8 mph - N/A Snow Light Snow
11:37 PM 21.2 °F 7.3 °F 19.4 °F 93% 30.28 in 1.0 mi NE 16.1 mph - N/A Snow Light Snow